This demonstration page uses our WeatherBlox Daily Observations layout. Learn more.

Left ArrowRight Arrow

Hourly Observations for December 2, 2020

Temp ( °F °C ) Dew Point ( °F °C ) Humidity (%) Winds ( mph kmh ) Pressure ( in mb ) Visibility ( mi km ) Precip ( " mm )
12:52 am 00:52 Mostly Cloudy 31 -0.6 17 -8.3 56 56 ESE 5 7 30.22 1023 10 16 0.00 0.00
1:52 am 01:52 Mostly Cloudy 25 -3.9 19 -7.2 78 78 Calm 30.23 1024 10 16 0.00 0.00
2:52 am 02:52 Partly Cloudy 25 -3.9 18 -7.8 75 75 NW 3 6 30.25 1024 10 16 0.00 0.00
3:52 am 03:52 Partly Cloudy 23 -5 17 -8.3 78 78 N 5 7 30.27 1025 10 16 0.00 0.00
4:52 am 04:52 Partly Cloudy 23 -5 17 -8.3 78 78 N 7 11 30.29 1026 10 16 0.00 0.00
5:52 am 05:52 Partly Cloudy 24 -4.4 18 -7.8 77 77 N 10 17 30.31 1026 10 16 0.00 0.00
6:52 am 06:52 Partly Cloudy 22 -5.6 17 -8.3 82 82 N 8 13 30.34 1027 10 16 0.00 0.00
7:52 am 07:52 Partly Cloudy 22 -5.6 17 -8.3 82 82 N 9 15 30.36 1028 10 16 0.00 0.00
8:52 am 08:52 Mostly Cloudy 24 -4.4 18 -7.8 77 77 N 9 15 30.38 1029 10 16 0.00 0.00
9:52 am 09:52 Mostly Cloudy 29 -1.7 21 -6.1 72 72 N 8 13 30.40 1030 10 16 0.00 0.00
10:52 am 10:52 Mostly Cloudy 34 1.1 21 -6.1 59 59 N 8 13 30.40 1030 10 16 0.00 0.00
11:52 am 11:52 Partly Cloudy 38 3.3 21 -6.1 51 51 NNE 7 11 30.38 1029 10 16 0.00 0.00
12:52 pm 12:52 Partly Cloudy 41 5 21 -6.1 45 45 N 7 11 30.38 1029 10 16 0.00 0.00
1:52 pm 13:52 Partly Cloudy 43 6.1 21 -6.1 42 42 NNW 9 15 30.38 1029 10 16 0.00 0.00
2:52 pm 14:52 Partly Cloudy 46 7.8 21 -6.1 37 37 NNW 7 11 30.37 1028 10 16 0.00 0.00
3:52 pm 15:52 Partly Cloudy 45 7.2 22 -5.6 40 40 NNW 9 15 30.35 1028 10 16 0.00 0.00
4:52 pm 16:52 Mostly Cloudy 39 3.9 23 -5 53 53 NNW 6 9 30.37 1029 10 16 0.00 0.00
5:52 pm 17:52 Mostly Cloudy 37 2.8 23 -5 57 57 N 10 17 30.39 1029 10 16 0.00 0.00
6:52 pm 18:52 Mostly Cloudy 35 1.7 24 -4.4 64 64 N 12 19 30.41 1030 10 16 0.00 0.00
7:52 pm 19:52 Partly Cloudy 32 0 23 -5 69 69 N 12 19 30.41 1030 10 16 0.00 0.00
8:52 pm 20:52 Partly Cloudy 30 -1.1 24 -4.4 79 79 NNW 12 19 30.42 1030 10 16 0.00 0.00
9:52 pm 21:52 Partly Cloudy 28 -2.2 24 -4.4 85 85 N 15 24 30.41 1030 10 16 0.00 0.00
10:52 pm 22:52 Clear 27 -2.8 23 -5 85 85 NNW 13 20 30.41 1030 10 16 0.00 0.00
11:05 pm 23:05 Mostly Cloudy 27 -2.8 24 -4.4 89 89 NNW 14 22 30.45 1031 10 16 0.00 0.00
11:33 pm 23:33 Cloudy 27 -2.8 24 -4.4 89 89 NNW 15 24 30.46 1031 10 16 0.00 0.00
11:52 pm 23:52 Cloudy 28 -2.2 25 -3.9 88 88 NNW 16 26 30.40 1030 10 16 0.00 0.00

Powered by AerisWeather